| time (UTC) | temp C | wind direction | speed KPH | gust KPH | rain 1hr cm | rain 24hr cm | rain mn cm | humidity % | barometer mb |
| 20260510044558 | 13 | 0 | 0.0 | 0.0 | 0.00 | 0.15 | 0.03 | 92 | 1030.8 |
| 20260510043107 | 13 | 0 | 0.0 | 0.0 | 0.00 | 0.15 | 0.03 | 93 | 1030.9 |
| 20260510041554 | 13 | 0 | 0.0 | 0.0 | 0.00 | 0.18 | 0.03 | 94 | 1030.9 |
| 20260510040105 | 13 | 0 | 0.0 | 0.0 | 0.00 | 0.18 | 0.03 | 95 | 1030.8 |
| 20260510034600 | 13 | 0 | 0.0 | 0.0 | 0.00 | 0.18 | 0.03 | 96 | 1031.0 |
| 20260510033056 | 13 | 0 | 0.0 | 0.0 | 0.00 | 0.18 | 0.03 | 96 | 1031.1 |
| 20260510031600 | 13 | 0 | 0.0 | 0.0 | 0.00 | 0.18 | 0.03 | 97 | 1031.2 |
| 20260510030051 | 12 | 0 | 0.0 | 0.0 | 0.00 | 0.18 | 0.03 | 98 | 1031.3 |
| 20260510024555 | 13 | 0 | 0.0 | 0.0 | 0.00 | 0.18 | 0.03 | 98 | 1031.5 |
| 20260510023053 | 12 | 0 | 0.0 | 0.0 | 0.00 | 0.18 | 0.03 | 98 | 1031.9 |
| 20260510021553 | 11 | 0 | 0.0 | 0.0 | 0.00 | 0.18 | 0.03 | 98 | 1032.1 |
| 20260510020050 | 11 | 0 | 0.0 | 0.0 | 0.00 | 0.18 | 0.03 | 98 | 1032.2 |
| 20260510014601 | 11 | 0 | 0.0 | 0.0 | 0.00 | 0.18 | 0.03 | 98 | 1032.4 |
| 20260510013109 | 12 | 0 | 0.0 | 0.0 | 0.00 | 0.18 | 0.03 | 98 | 1032.4 |
| 20260510011554 | 11 | 0 | 0.0 | 0.0 | 0.00 | 0.23 | 0.03 | 98 | 1032.5 |
| 20260510010050 | 11 | 0 | 0.0 | 0.0 | 0.00 | 0.23 | 0.03 | 98 | 1032.5 |
| 20260510004550 | 11 | 0 | 0.0 | 0.0 | 0.00 | 0.23 | 0.03 | 98 | 1032.4 |
| 20260510003054 | 11 | 0 | 0.0 | 0.0 | 0.00 | 0.23 | 0.03 | 98 | 1032.4 |
| 20260510001554 | 11 | 0 | 0.0 | 0.0 | 0.00 | 0.25 | 0.03 | 98 | 1032.4 |
| 20260510000057 | 11 | 0 | 0.0 | 0.0 | 0.00 | 0.25 | 0.03 | 98 | 1032.4 |
| 20260509234548 | 11 | 0 | 0.0 | 0.0 | 0.00 | 0.25 | 0.03 | 98 | 1032.3 |
| 20260509233055 | 11 | 0 | 0.0 | 0.0 | 0.00 | 0.25 | 0.03 | 98 | 1032.4 |
| 20260509231558 | 10 | 0 | 0.0 | 0.0 | 0.00 | 0.25 | 0.03 | 98 | 1032.3 |
| 20260509230054 | 10 | 0 | 0.0 | 0.0 | 0.00 | 0.25 | 0.03 | 98 | 1032.2 |
| 20260509224552 | 10 | 0 | 0.0 | 0.0 | 0.00 | 0.25 | 0.03 | 98 | 1032.1 |
| 20260509223054 | 10 | 0 | 0.0 | 0.0 | 0.00 | 0.25 | 0.03 | 98 | 1032.0 |
| 20260509221554 | 10 | 0 | 0.0 | 0.0 | 0.00 | 0.28 | 0.03 | 98 | 1031.8 |
| 20260509220057 | 10 | 0 | 0.0 | 0.0 | 0.00 | 0.28 | 0.03 | 98 | 1031.6 |
| 20260509214555 | 10 | 0 | 0.0 | 0.0 | 0.00 | 0.28 | 0.03 | 98 | 1031.5 |
| 20260509213053 | 10 | 0 | 0.0 | 0.0 | 0.00 | 0.28 | 0.03 | 98 | 1031.3 |
| 20260509211554 | 10 | 0 | 0.0 | 0.0 | 0.00 | 0.28 | 0.03 | 98 | 1031.1 |
| 20260509210107 | 10 | 0 | 0.0 | 0.0 | 0.00 | 0.28 | 0.03 | 98 | 1031.1 |
| 20260509204557 | 10 | 0 | 0.0 | 0.0 | 0.00 | 0.28 | 0.03 | 98 | 1030.9 |
| 20260509203052 | 10 | 0 | 0.0 | 0.0 | 0.00 | 0.28 | 0.03 | 98 | 1030.7 |
| 20260509201553 | 10 | 0 | 0.0 | 0.0 | 0.00 | 0.28 | 0.03 | 98 | 1030.7 |
| 20260509200106 | 10 | 0 | 0.0 | 0.0 | 0.00 | 0.28 | 0.03 | 98 | 1030.6 |
| 20260509194550 | 10 | 0 | 0.0 | 0.0 | 0.00 | 0.28 | 0.03 | 98 | 1030.5 |
| 20260509193055 | 10 | 0 | 0.0 | 0.0 | 0.00 | 0.28 | 0.03 | 98 | 1030.4 |
| 20260509191554 | 10 | 0 | 0.0 | 0.0 | 0.00 | 0.28 | 0.03 | 98 | 1030.3 |
| 20260509190057 | 10 | 0 | 0.0 | 0.0 | 0.00 | 0.28 | 0.03 | 98 | 1030.1 |
| 20260509184645 | 10 | 0 | 0.0 | 0.0 | 0.00 | 0.28 | 0.03 | 98 | 1030.0 |
| 20260509183101 | 10 | 0 | 0.0 | 0.0 | 0.00 | 0.28 | 0.03 | 98 | 1030.0 |
| 20260509181556 | 10 | 0 | 0.0 | 0.0 | 0.00 | 0.30 | 0.03 | 98 | 1030.0 |
| 20260509180108 | 10 | 0 | 0.0 | 0.0 | 0.00 | 0.30 | 0.03 | 98 | 1029.9 |
| 20260509174553 | 10 | 0 | 0.0 | 0.0 | 0.00 | 0.30 | 0.03 | 98 | 1029.8 |
| 20260509173054 | 10 | 0 | 0.0 | 0.0 | 0.00 | 0.30 | 0.03 | 98 | 1029.9 |
| 20260509171552 | 10 | 0 | 0.0 | 0.0 | 0.00 | 0.30 | 0.03 | 98 | 1030.0 |
| 20260509170100 | 10 | 0 | 0.0 | 0.0 | 0.00 | 0.30 | 0.03 | 98 | 1030.0 |
| 20260509164554 | 10 | 0 | 0.0 | 0.0 | 0.00 | 0.30 | 0.03 | 98 | 1030.2 |
| 20260509163106 | 10 | 0 | 0.0 | 0.0 | 0.00 | 0.30 | 0.03 | 98 | 1030.3 |
| 20260509161552 | 10 | 0 | 0.0 | 0.0 | 0.00 | 0.30 | 0.03 | 98 | 1030.3 |
| 20260509160057 | 10 | 0 | 0.0 | 0.0 | 0.00 | 0.28 | 0.00 | 98 | 1030.5 |
| 20260509154558 | 10 | 0 | 0.0 | 0.0 | 0.00 | 0.28 | 0.00 | 98 | 1030.5 |
| 20260509153058 | 10 | 0 | 0.0 | 0.0 | 0.00 | 0.28 | 0.00 | 98 | 1030.5 |
| 20260509151556 | 10 | 0 | 0.0 | 0.0 | 0.00 | 0.28 | 0.00 | 98 | 1030.6 |
| 20260509150055 | 10 | 0 | 0.0 | 0.0 | 0.03 | 0.28 | 0.00 | 98 | 1030.7 |
| 20260509144555 | 10 | 0 | 0.0 | 0.0 | 0.00 | 0.28 | 0.00 | 98 | 1030.7 |
| 20260509143055 | 10 | 0 | 0.0 | 0.0 | 0.00 | 0.28 | 0.00 | 98 | 1030.8 |
| 20260509141600 | 10 | 0 | 0.0 | 0.0 | 0.03 | 0.28 | 0.28 | 98 | 1030.8 |
| 20260509134551 | 10 | 0 | 0.0 | 0.0 | 0.05 | 0.28 | 0.25 | 98 | 1030.6 |
| 20260509133054 | 10 | 0 | 0.0 | 0.0 | 0.05 | 0.28 | 0.25 | 98 | 1030.7 |
| 20260509131551 | 10 | 0 | 0.0 | 0.0 | 0.03 | 0.25 | 0.23 | 98 | 1030.7 |
| 20260509130051 | 11 | 0 | 0.0 | 0.0 | 0.00 | 0.23 | 0.20 | 98 | 1031.0 |
| 20260509124558 | 11 | 0 | 0.0 | 0.0 | 0.00 | 0.20 | 0.18 | 98 | 1031.1 |
| 20260509123056 | 10 | 0 | 0.0 | 0.0 | 0.00 | 0.20 | 0.18 | 98 | 1031.0 |
| 20260509121552 | 10 | 0 | 0.0 | 0.0 | 0.00 | 0.23 | 0.18 | 98 | 1031.0 |
| 20260509120055 | 10 | 0 | 0.0 | 0.0 | 0.00 | 0.23 | 0.18 | 98 | 1031.0 |
| 20260509114554 | 10 | 0 | 0.0 | 0.0 | 0.00 | 0.23 | 0.18 | 98 | 1030.8 |
| 20260509113113 | 10 | 0 | 0.0 | 0.0 | 0.00 | 0.23 | 0.18 | 98 | 1030.7 |
| 20260509111600 | 10 | 0 | 0.0 | 0.0 | 0.00 | 0.25 | 0.18 | 98 | 1030.8 |
| 20260509110052 | 10 | 0 | 0.0 | 0.0 | 0.00 | 0.25 | 0.18 | 98 | 1030.9 |
| 20260509104559 | 10 | 0 | 0.0 | 0.0 | 0.00 | 0.25 | 0.18 | 98 | 1030.9 |
| 20260509103059 | 10 | 0 | 0.0 | 0.0 | 0.00 | 0.25 | 0.18 | 98 | 1030.9 |
| 20260509101551 | 10 | 0 | 0.0 | 0.0 | 0.00 | 0.25 | 0.18 | 98 | 1031.0 |
| 20260509100108 | 10 | 0 | 0.0 | 0.0 | 0.00 | 0.25 | 0.18 | 98 | 1031.0 |
| 20260509094556 | 10 | 0 | 0.0 | 0.0 | 0.00 | 0.25 | 0.18 | 98 | 1031.1 |
| 20260509093101 | 11 | 0 | 0.0 | 0.0 | 0.00 | 0.25 | 0.18 | 98 | 1031.0 |
| 20260509091603 | 11 | 0 | 0.0 | 0.0 | 0.00 | 0.25 | 0.18 | 98 | 1030.9 |
| 20260509090054 | 11 | 0 | 0.0 | 0.0 | 0.00 | 0.25 | 0.18 | 98 | 1031.1 |
| 20260509084553 | 10 | 0 | 0.0 | 0.0 | 0.00 | 0.25 | 0.18 | 98 | 1031.0 |
| 20260509083056 | 11 | 0 | 0.0 | 0.0 | 0.00 | 0.25 | 0.18 | 98 | 1030.9 |
| 20260509081558 | 11 | 0 | 0.0 | 0.0 | 0.00 | 0.25 | 0.18 | 98 | 1030.8 |
| 20260509080057 | 11 | 0 | 0.0 | 0.0 | 0.00 | 0.25 | 0.18 | 98 | 1030.7 |
| 20260509074555 | 11 | 0 | 0.0 | 0.0 | 0.00 | 0.25 | 0.18 | 98 | 1030.6 |
| 20260509073104 | 11 | 0 | 0.0 | 0.0 | 0.00 | 0.25 | 0.18 | 98 | 1030.6 |
| 20260509071557 | 11 | 0 | 0.0 | 0.0 | 0.00 | 0.25 | 0.18 | 98 | 1030.4 |
| 20260509070059 | 11 | 0 | 0.0 | 0.0 | 0.00 | 0.25 | 0.18 | 98 | 1030.3 |
| 20260509064557 | 11 | 0 | 0.0 | 0.0 | 0.00 | 0.25 | 0.18 | 98 | 1030.3 |
| 20260509063104 | 11 | 0 | 0.0 | 0.0 | 0.00 | 0.25 | 0.18 | 98 | 1030.2 |
| 20260509061611 | 12 | 0 | 0.0 | 0.0 | 0.00 | 0.23 | 0.18 | 98 | 1030.2 |
| 20260509060058 | 12 | 0 | 0.0 | 0.0 | 0.00 | 0.23 | 0.18 | 98 | 1030.2 |
| 20260509054605 | 12 | 0 | 0.0 | 0.0 | 0.00 | 0.23 | 0.18 | 98 | 1030.3 |
| 20260509053101 | 12 | 0 | 0.0 | 0.0 | 0.00 | 0.23 | 0.18 | 98 | 1030.3 |
| 20260509051556 | 12 | 0 | 0.0 | 0.0 | 0.00 | 0.23 | 0.18 | 98 | 1030.3 |
| 20260509050057 | 12 | 0 | 0.0 | 0.0 | 0.00 | 0.20 | 0.15 | 98 | 1030.3 |